Regional Weather Roundup
Issued by NWS

Home | Current Version | Previous Version | Graphics & Text | Print | Product List | Glossary On
Versions: 1 2 3 4 5 6 7 8 9 10 11 12 13 14 15 16 17 18 19 20 21 22 23 24 25 26 27 28 29 30 31 32 33 34 35 36 37 38 39 40 41 42 43 44 45 46 47 48 49 50
000
ASUS45 KBOI 220110
RWRID
WEATHER ROUNDUP FOR IDAHO
NATIONAL WEATHER SERVICE BOISE ID
700 PM MDT MON JUL 21 2014

NOTE: "FAIR" INDICATES FEW OR NO CLOUDS BELOW 12000 FEET
WITH NO SIGNIFICANT WEATHER AND/OR OBSTRUCTIONS TO VISIBILITY

IDZ012-014-220200-
SOUTHWEST IDAHO


CITY           SKY/WX    TMP DP  RH WIND       PRES   REMARKS
BOISE          CLOUDY    81  51  35 SW5       30.01S
CALDWELL       CLOUDY    82  52  34 S8        30.01S
MOUNTAIN HOME  CLOUDY    75  58  55 S10       30.04R
$$

IDZ016-017-220200-
SOUTHCENTRAL IDAHO


CITY           SKY/WX    TMP DP  RH WIND       PRES   REMARKS
BURLEY         MOSUNNY   73  56  54 W13G18    30.06R
JEROME         PTSUNNY   74  57  55 W7        30.07F
TWIN FALLS     PTSUNNY   77  57  50 W8        30.07F
$$

IDZ019>023-220200-
SOUTHEAST IDAHO


CITY           SKY/WX    TMP DP  RH WIND       PRES   REMARKS
IDAHO FALLS    PTSUNNY   78  55  44 S7        30.06S
POCATELLO      MOSUNNY   84  48  28 SW12      30.07S
REXBURG        RAIN      69  58  67 SW16G29   30.07F
$$

IDZ006-010-011-018-031-032-220200-
CENTRAL IDAHO MOUNTAINS


CITY           SKY/WX    TMP DP  RH WIND       PRES   REMARKS
MCCALL         PTSUNNY   72  40  31 SW9       30.09S
HAILEY         PTSUNNY   77  46  33 SW7       30.12F
STANLEY          N/A     64  47  53 S3        30.20F
SALMON         PTSUNNY   79  46  31 SW17      29.98R
CHALLIS        PTSUNNY   75  41  29 W7        30.09S
$$

IDZ002-004-006-007-026-220200-
NORTHERN IDAHO


CITY           SKY/WX    TMP DP  RH WIND       PRES   REMARKS
LEWISTON       MOSUNNY   86  37  17 NW10      29.93S
LOWELL           N/A     78  51  38 CALM      29.92R
COEUR D`ALENE  PTSUNNY   75  43  31 MISG      30.00R
MULLAN PASS    PTSUNNY   60  38  43 VRB3      30.16S
$$


USA.gov is the U.S. government's official web portal to all federal, state and local government web resources and services.